Location: Beetenbrück
(52.8113°N, 9.5946°E)
Time: 16:44:06
(UTC+00:00)

Cosmos 2100 Rocket - Pass Details

Date: 14 April 2026
Orbit: 956 x 999 km, 82.9° (Epoch: 9 May)

Event Time Altitude Azimuth Distance (km) Brightness Sun altitude
Exits shadow 22:32:23 64° 126° (SE) 1,060 3.9 -26.6°
Maximum altitude 22:32:55 67° 95° (E) 1,037 4.0 -26.6°
Drops below altitude 10° 22:39:03 10° 14° (NNE) 2,711 7.1 -26.8°
Sets 22:41:35 0° 12° (NNE) 3,666 8.0 -26.9°
